Location: Hackbridge
(51.3833°N, 0.1500°W)
Time: 10:47:19
(UTC+00:00)

ATLAS CENTAUR R/B - Pass Details

Date: 13 October 2019
Orbit: 456 x 692 km, 64.6° (Epoch: 31 October)

Event Time Altitude Azimuth Distance (km) Brightness Sun altitude
Rises 17:55:23 0° 273° (W) 3,062 7.5 -7.5°
Reaches altitude 10° 17:58:16 10° 289° (WNW) 2,131 5.6 -7.9°
Maximum altitude 18:02:00 21° 339° (NNW) 1,484 3.7 -8.5°
Drops below altitude 10° 18:05:37 10° 30° (NNE) 2,061 3.9 -9.1°
Enters shadow 18:07:40 - 43° (NE) 2,701 4.4 -9.4°
